Weather History for Hattiesburg, MS

Change the Weather History Date:

Sunday, August 4, 2013

  Actual Average Record
Temperature  
Mean Temperature 85 °F 82 °F  
Max Temperature 94 °F 93 °F 101 °F (1951)
Min Temperature 75 °F 71 °F 62 °F (1973)
Degree Days  
Heating Degree Days 0 0  
Month to date heating degree days 0 0  
Since 1 June heating degree days 0 0  
Since 1 July heating degree days 0 0  
Cooling Degree Days 20 17  
Month to date cooling degree days 73 68  
Year to date cooling degree days 1353 1428  
Since 1 June cooling degree days 1011 1013  
Growing Degree Days 34 (Base 50)    
Moisture  
Dew Point 74 °F    
Average Humidity 76    
Maximum Humidity 100    
Minimum Humidity 52    
Precipitation  
Precipitation 0.00 in 0.15 in 1.85 in (1993)
Month to date precipitation 1.14 0.62  
Year to date precipitation 49.28 38.05  
Sea Level Pressure  
Sea Level Pressure 30.05 in    
Wind  
Wind Speed 2 mph (NW)    
Max Wind Speed 9 mph    
Max Gust Speed 30 mph    
Visibility 9 miles    
Events      
T = Trace of Precipitation, MM = Missing Value Source: NWS Daily Summary

Daily Weather History Graph

Daily Weather History Graph

Search for Another Location

Airport:

Trip Planner

Search our weather history database for the weather conditions in past years. The results will help you decide how hot, cold, wet, or windy it might be!

Date:

Astronomy

Aug. 04, 2013 Rise Set
Actual Time 6:15 AM CDT 7:49 PM CDT
Civil Twilight 5:49 AM CDT 8:16 PM CDT
Nautical Twilight 5:18 AM CDT 8:47 PM CDT
Astronomical Twilight 4:45 AM CDT 9:20 PM CDT
Moon 4:18 AM CDT (8/4) 6:12 PM CDT (8/4)
Length of Visible Light 14h 26m
Length of Day
13h 34m
Waning Crescent, 4% of the Moon is Illuminated
Aug 4
Waning Crescent
Aug 6
New
Aug 14
First Quarter
Aug 20
Full
Aug 28
Last Quarter

Hourly Weather History & Observations

Time (CDT) Temp. Heat Index Dew Point Humidity Pressure Visibility Wind Dir Wind Speed Gust Speed Precip Events Conditions
12:53 AM 75.9 °F - 75.0 °F 97% 30.05 in 8.0 mi Calm Calm - N/A   Clear
1:53 AM 77.0 °F - 75.0 °F 94% 30.05 in 7.0 mi Calm Calm - N/A   Partly Cloudy
2:53 AM 75.9 °F - 75.0 °F 97% 30.05 in 7.0 mi Calm Calm - N/A   Clear
3:53 AM 75.9 °F - 73.9 °F 94% 30.04 in 8.0 mi Calm Calm - N/A   Clear
4:53 AM 75.9 °F - 73.9 °F 94% 30.04 in 7.0 mi Calm Calm - N/A   Clear
5:53 AM 75.0 °F - 73.0 °F 94% 30.05 in 7.0 mi Calm Calm - N/A   Clear
6:53 AM 75.0 °F - 73.9 °F 96% 30.07 in 4.0 mi Calm Calm - N/A   Clear
7:53 AM 79.0 °F - 75.0 °F 88% 30.09 in 8.0 mi West 3.5 mph - N/A   Clear
8:53 AM 84.0 °F 91.9 °F 75.0 °F 74% 30.09 in 10.0 mi Variable 4.6 mph - N/A   Clear
9:53 AM 87.1 °F 96.3 °F 75.0 °F 67% 30.09 in 10.0 mi WNW 8.1 mph - N/A   Clear
10:53 AM 90.0 °F 100.2 °F 75.0 °F 61% 30.09 in 10.0 mi Variable 5.8 mph - N/A   Partly Cloudy
11:53 AM 91.0 °F 100.4 °F 73.9 °F 57% 30.08 in 10.0 mi NNW 6.9 mph - N/A   Partly Cloudy
12:53 PM 91.9 °F 100.7 °F 73.0 °F 54% 30.06 in 10.0 mi North - - N/A   Partly Cloudy
1:53 PM 91.9 °F 100.7 °F 73.0 °F 54% 30.03 in 10.0 mi NW 6.9 mph - N/A   Scattered Clouds
2:53 PM 93.0 °F 101.9 °F 73.0 °F 52% 30.01 in 10.0 mi West 6.9 mph - N/A   Scattered Clouds
3:53 PM 84.9 °F 90.7 °F 72.0 °F 65% 30.04 in 10.0 mi NNE 9.2 mph 29.9 mph N/A   Mostly Cloudy
4:53 PM 82.9 °F 87.5 °F 71.1 °F 67% 30.01 in 10.0 mi Calm Calm - N/A   Clear
5:53 PM 84.0 °F 89.6 °F 72.0 °F 67% 30.01 in 10.0 mi Calm Calm - N/A   Clear
6:53 PM 82.9 °F 88.8 °F 73.0 °F 72% 29.99 in 10.0 mi Calm Calm - N/A   Clear
7:53 PM 82.0 °F 88.6 °F 75.0 °F 79% 30.01 in 10.0 mi Calm Calm - N/A   Clear
8:53 PM 80.1 °F 85.4 °F 75.9 °F 87% 30.03 in 10.0 mi Calm Calm - N/A   Clear
9:53 PM 79.0 °F - 75.9 °F 90% 30.05 in 10.0 mi Calm Calm - N/A   Clear
10:53 PM 78.1 °F - 75.0 °F 90% 30.06 in 10.0 mi Calm Calm - N/A   Clear
11:53 PM 77.0 °F - 75.0 °F 94% 30.05 in 10.0 mi Calm Calm - N/A   Clear